Time,TemperatureF,DewpointF,PressureIn,WindDirection,WindDirectionDegrees,WindSpeedMPH,WindSpeedGustMPH,Humidity,HourlyPrecipIn,Conditions,Clouds,dailyrainin,SoftwareType,DateUTC
2013-02-21 00:12:00,30.0,22.7,29.92,NW,315,0.0,-999.0,74,-99.99,,,0.00,Acu-Link.com,2013-02-21 05:12:00,
2013-02-21 00:27:00,30.2,23.6,29.93,West,270,0.0,-999.0,76,-99.99,,,0.00,Acu-Link.com,2013-02-21 05:27:00,
2013-02-21 00:42:00,30.0,24.3,29.92,ENE,67,0.0,-999.0,79,-99.99,,,0.00,Acu-Link.com,2013-02-21 05:42:00,
2013-02-21 00:57:00,29.7,23.4,29.92,NW,315,0.0,-999.0,77,-99.99,,,0.00,Acu-Link.com,2013-02-21 05:57:00,
2013-02-21 01:12:00,29.1,23.4,29.93,SSW,202,0.0,-999.0,79,-99.99,,,0.00,Acu-Link.com,2013-02-21 06:12:00,
2013-02-21 06:22:00,27.7,23.5,29.93,NNW,337,0.0,-999.0,84,-99.99,,,0.00,Acu-Link.com,2013-02-21 11:22:00,
2013-02-21 06:37:00,27.9,22.5,29.94,West,270,0.0,-999.0,80,-99.99,,,0.00,Acu-Link.com,2013-02-21 11:37:00,
2013-02-21 06:52:00,27.9,21.9,29.94,WSW,247,0.0,-999.0,78,-99.99,,,0.00,Acu-Link.com,2013-02-21 11:52:00,
2013-02-21 07:07:00,27.9,21.6,29.95,WNW,292,0.0,-999.0,77,-99.99,,,0.00,Acu-Link.com,2013-02-21 12:07:00,
2013-02-21 07:23:00,27.9,21.9,29.95,North,0,2.2,-999.0,78,-99.99,,,0.00,Acu-Link.com,2013-02-21 12:23:00,
2013-02-21 07:38:00,28.0,21.7,29.95,NNE,22,0.0,-999.0,77,-99.99,,,0.00,Acu-Link.com,2013-02-21 12:38:00,
2013-02-21 07:53:00,28.9,22.3,29.95,ENE,67,0.0,-999.0,76,-99.99,,,0.00,Acu-Link.com,2013-02-21 12:53:00,
2013-02-21 08:08:00,30.2,22.3,29.96,NE,45,3.7,-999.0,72,-99.99,,,0.00,Acu-Link.com,2013-02-21 13:08:00,
2013-02-21 08:23:00,31.6,23.0,29.96,NNE,22,4.2,-999.0,70,-99.99,,,0.00,Acu-Link.com,2013-02-21 13:23:00,
2013-02-21 08:38:00,32.7,23.3,29.97,North,0,2.2,-999.0,68,-99.99,,,0.00,Acu-Link.com,2013-02-21 13:38:00,
2013-02-21 08:54:00,34.7,24.9,29.96,East,90,2.7,-999.0,67,-99.99,,,0.00,Acu-Link.com,2013-02-21 13:54:00,
2013-02-21 09:09:00,35.1,23.8,29.96,North,0,5.8,-999.0,63,-99.99,,,0.00,Acu-Link.com,2013-02-21 14:09:00,
2013-02-21 09:24:00,35.8,24.5,29.96,NNE,22,3.7,-999.0,63,-99.99,,,0.00,Acu-Link.com,2013-02-21 14:24:00,
2013-02-21 09:39:00,36.5,24.3,29.96,ENE,67,3.7,-999.0,61,-99.99,,,0.00,Acu-Link.com,2013-02-21 14:39:00,
2013-02-21 09:54:00,37.4,24.8,29.96,East,90,4.7,-999.0,60,-99.99,,,0.00,Acu-Link.com,2013-02-21 14:54:00,
2013-02-21 10:09:00,38.8,25.7,29.94,NE,45,2.7,-999.0,59,-99.99,,,0.00,Acu-Link.com,2013-02-21 15:09:00,
2013-02-21 10:24:00,40.3,26.7,29.94,NW,315,5.3,-999.0,58,-99.99,,,0.00,Acu-Link.com,2013-02-21 15:24:00,
2013-02-21 10:39:00,40.8,26.8,29.93,NNW,337,5.8,-999.0,57,-99.99,,,0.00,Acu-Link.com,2013-02-21 15:39:00,
2013-02-21 10:54:00,42.3,26.4,29.92,ENE,67,0.0,-999.0,53,-99.99,,,0.00,Acu-Link.com,2013-02-21 15:54:00,
2013-02-21 11:10:00,44.2,28.6,29.92,NE,45,3.2,-999.0,54,-99.99,,,0.00,Acu-Link.com,2013-02-21 16:10:00,
2013-02-21 11:25:00,44.4,27.9,29.91,NE,45,3.7,-999.0,52,-99.99,,,0.00,Acu-Link.com,2013-02-21 16:25:00,
2013-02-21 11:40:00,45.3,27.8,29.91,NW,315,3.7,-999.0,50,-99.99,,,0.00,Acu-Link.com,2013-02-21 16:40:00,
2013-02-21 11:55:00,47.1,29.4,29.90,NNE,22,1.7,-999.0,50,-99.99,,,0.00,Acu-Link.com,2013-02-21 16:55:00,
2013-02-21 12:10:00,47.5,29.3,29.88,NE,45,0.0,-999.0,49,-99.99,,,0.00,Acu-Link.com,2013-02-21 17:10:00,
2013-02-21 12:25:00,49.5,29.6,29.87,NW,315,2.2,-999.0,46,-99.99,,,0.00,Acu-Link.com,2013-02-21 17:25:00,
2013-02-21 12:40:00,50.9,29.8,29.86,North,0,3.2,-999.0,44,-99.99,,,0.00,Acu-Link.com,2013-02-21 17:40:00,
2013-02-21 12:55:00,50.9,30.3,29.84,NE,45,4.7,-999.0,45,-99.99,,,0.00,Acu-Link.com,2013-02-21 17:55:00,
2013-02-21 13:10:00,52.7,30.8,29.84,East,90,1.1,-999.0,43,-99.99,,,0.00,Acu-Link.com,2013-02-21 18:10:00,
2013-02-21 13:26:00,53.8,31.8,29.84,NE,45,3.2,-999.0,43,-99.99,,,0.00,Acu-Link.com,2013-02-21 18:26:00,
2013-02-21 13:41:00,54.7,31.5,29.84,NE,45,2.7,-999.0,41,-99.99,,,0.00,Acu-Link.com,2013-02-21 18:41:00,
2013-02-21 13:56:00,54.9,30.4,29.83,NE,45,2.7,-999.0,39,-99.99,,,0.00,Acu-Link.com,2013-02-21 18:56:00,
2013-02-21 14:11:00,55.0,30.5,29.80,NE,45,0.0,-999.0,39,-99.99,,,0.00,Acu-Link.com,2013-02-21 19:11:00,
2013-02-21 14:26:00,56.3,31.0,29.81,NNW,337,3.7,-999.0,38,-99.99,,,0.00,Acu-Link.com,2013-02-21 19:26:00,
2013-02-21 14:41:00,57.6,31.5,29.79,ENE,67,5.8,-999.0,37,-99.99,,,0.00,Acu-Link.com,2013-02-21 19:41:00,
2013-02-21 14:56:00,56.3,31.7,29.79,ESE,112,1.1,-999.0,39,-99.99,,,0.00,Acu-Link.com,2013-02-21 19:56:00,
2013-02-21 15:11:00,57.0,31.6,29.77,NE,45,1.7,-999.0,38,-99.99,,,0.00,Acu-Link.com,2013-02-21 20:11:00,
2013-02-21 15:26:00,56.7,32.0,29.76,East,90,2.2,-999.0,39,-99.99,,,0.00,Acu-Link.com,2013-02-21 20:26:00,
2013-02-21 15:42:00,56.5,33.1,29.75,ESE,112,0.0,-999.0,41,-99.99,,,0.00,Acu-Link.com,2013-02-21 20:42:00,
2013-02-21 15:57:00,57.0,33.5,29.73,East,90,5.8,-999.0,41,-99.99,,,0.00,Acu-Link.com,2013-02-21 20:57:00,
2013-02-21 16:12:00,56.8,32.7,29.72,East,90,2.2,-999.0,40,-99.99,,,0.00,Acu-Link.com,2013-02-21 21:12:00,
2013-02-21 16:27:00,56.8,33.4,29.74,East,90,3.2,-999.0,41,-99.99,,,0.00,Acu-Link.com,2013-02-21 21:27:00,
2013-02-21 16:42:00,56.1,33.3,29.73,ESE,112,0.0,-999.0,42,-99.99,,,0.00,Acu-Link.com,2013-02-21 21:42:00,
2013-02-21 16:57:00,55.6,34.0,29.71,SE,135,0.0,-999.0,44,-99.99,,,0.00,Acu-Link.com,2013-02-21 21:57:00,
2013-02-21 17:12:00,55.0,34.1,29.68,NE,45,0.0,-999.0,45,-99.99,,,0.00,Acu-Link.com,2013-02-21 22:12:00,
2013-02-21 17:27:00,54.1,34.3,29.69,NE,45,1.7,-999.0,47,-99.99,,,0.00,Acu-Link.com,2013-02-21 22:27:00,
2013-02-21 17:42:00,53.6,34.4,29.72,NNW,337,1.1,-999.0,48,-99.99,,,0.00,Acu-Link.com,2013-02-21 22:42:00,
2013-02-21 17:58:00,52.2,37.0,29.73,ESE,112,0.0,-999.0,56,-99.99,,,0.00,Acu-Link.com,2013-02-21 22:58:00,
2013-02-21 18:13:00,49.8,42.5,29.73,North,0,1.7,-999.0,76,-99.99,,,0.00,Acu-Link.com,2013-02-21 23:13:00,
2013-02-21 18:28:00,47.8,43.5,29.75,WNW,292,0.0,-999.0,85,-99.99,,,0.02,Acu-Link.com,2013-02-21 23:28:00,
2013-02-21 18:43:00,46.0,44.1,29.76,SSE,157,0.0,-999.0,93,-99.99,,,0.04,Acu-Link.com,2013-02-21 23:43:00,
2013-02-21 18:58:00,44.8,44.3,29.76,South,180,1.7,-999.0,98,-99.99,,,0.07,Acu-Link.com,2013-02-21 23:58:00,
2013-02-21 19:13:00,43.7,43.2,29.74,WNW,292,0.0,-999.0,98,-99.99,,,0.10,Acu-Link.com,2013-02-22 00:13:00,
2013-02-21 19:28:00,43.3,42.8,29.75,SSE,157,0.0,-999.0,98,-99.99,,,0.14,Acu-Link.com,2013-02-22 00:28:00,
2013-02-21 19:44:00,42.8,42.3,29.75,East,90,0.0,-999.0,98,-99.99,,,0.18,Acu-Link.com,2013-02-22 00:44:00,
2013-02-21 19:59:00,42.6,42.1,29.77,NE,45,0.0,-999.0,98,-99.99,,,0.18,Acu-Link.com,2013-02-22 00:59:00,
2013-02-21 20:14:00,42.4,41.9,29.79,SE,135,0.0,-999.0,98,-99.99,,,0.21,Acu-Link.com,2013-02-22 01:14:00,
2013-02-21 20:29:00,42.4,41.9,29.78,East,90,0.0,-999.0,98,-99.99,,,0.23,Acu-Link.com,2013-02-22 01:29:00,
2013-02-21 20:44:00,42.4,41.9,29.78,NNE,22,0.0,-999.0,98,-99.99,,,0.30,Acu-Link.com,2013-02-22 01:44:00,
2013-02-21 20:59:00,42.1,41.6,29.84,NNW,337,0.0,-999.0,98,-99.99,,,0.36,Acu-Link.com,2013-02-22 01:59:00,
2013-02-21 21:14:00,41.9,41.4,29.81,SSE,157,0.0,-999.0,98,-99.99,,,0.44,Acu-Link.com,2013-02-22 02:14:00,
2013-02-21 21:29:00,41.7,41.2,29.83,North,0,1.7,-999.0,98,-99.99,,,0.49,Acu-Link.com,2013-02-22 02:29:00,
2013-02-21 21:44:00,41.5,41.0,29.81,NNE,22,2.7,-999.0,98,-99.99,,,0.54,Acu-Link.com,2013-02-22 02:44:00,
2013-02-21 22:00:00,41.5,41.0,29.82,NE,45,0.0,-999.0,98,-99.99,,,0.56,Acu-Link.com,2013-02-22 03:00:00,
2013-02-21 22:15:00,41.5,41.0,29.84,NE,45,0.0,-999.0,98,-99.99,,,0.57,Acu-Link.com,2013-02-22 03:15:00,
2013-02-21 22:30:00,41.5,41.0,29.85,NW,315,0.0,-999.0,98,-99.99,,,0.60,Acu-Link.com,2013-02-22 03:30:00,
2013-02-21 22:45:00,41.5,41.0,29.84,NNE,22,0.0,-999.0,98,-99.99,,,0.62,Acu-Link.com,2013-02-22 03:45:00,
2013-02-21 23:00:00,41.5,41.0,29.84,SE,135,0.0,-999.0,98,-99.99,,,0.68,Acu-Link.com,2013-02-22 04:00:00,
2013-02-21 23:15:00,41.5,41.0,29.82,SW,225,0.0,-999.0,98,-99.99,,,0.70,Acu-Link.com,2013-02-22 04:15:00,
2013-02-21 23:30:00,41.7,41.2,29.80,SSE,157,3.2,-999.0,98,-99.99,,,0.71,Acu-Link.com,2013-02-22 04:30:00,
2013-02-21 23:45:00,42.6,42.1,29.79,West,270,0.0,-999.0,98,-99.99,,,0.72,Acu-Link.com,2013-02-22 04:45:00,